CW1735 Weather Reports


Display with metric or nautical units.
time (UTC)temp
F
wind
direction
speed
MPH
gust
MPH
rain 1hr
in
rain 24hr
in
rain mn
in
humidity
%
barometer
mb
20260506182110 59 213 0.0 0.0 0.06 0.18 0.18 100 1004.3
20260506181610 59 212 0.0 0.0 0.05 0.17 0.17 100 1004.3
20260506181111 59 192 0.0 0.0 0.04 0.16 0.16 100 1004.4
20260506180612 59 224 0.0 0.0 0.03 0.15 0.15 100 1004.4
20260506175612 59 210 0.0 0.0 0.01 0.12 0.12 100 1004.5
20260506175112 59 172 0.0 0.0 0.01 0.12 0.12 100 1004.5
20260506174613 59 227 0.0 0.0 0.01 0.12 0.12 100 1004.5
20260506173614 59 229 0.0 0.0 0.02 0.12 0.12 100 1004.4
20260506173114 59 185 0.0 0.0 0.02 0.12 0.12 100 1004.4
20260506172615 60 205 0.0 0.0 0.03 0.12 0.12 100 1004.4
20260506171616 59 219 0.0 0.0 0.05 0.12 0.12 100 1004.4
20260506171117 59 209 0.0 0.0 0.06 0.12 0.12 100 1004.5
20260506170616 59 209 0.0 0.0 0.07 0.12 0.12 100 1004.5
20260506165617 59 179 0.0 0.0 0.07 0.11 0.11 100 1004.4
20260506164618 59 160 0.0 0.0 0.08 0.11 0.11 100 1004.4
20260506163619 60 220 0.0 0.0 0.07 0.10 0.10 100 1005.1
20260506163119 60 113 0.0 0.0 0.08 0.10 0.10 100 1005.1
20260506162620 60 203 0.0 0.0 0.07 0.09 0.09 100 1005.6
20260506162121 60 147 0.0 0.0 0.06 0.08 0.08 100 1005.6
20260506161620 60 210 0.0 0.0 0.06 0.07 0.07 100 1005.6
20260506160552 60 193 0.0 0.0 0.05 0.05 0.05 98 1005.7
20260506155552 61 216 0.0 0.0 0.04 0.04 0.04 97 1006.0
20260506155052 61 243 0.0 0.0 0.03 0.03 0.03 97 1006.0
20260506154623 61 213 0.0 0.0 0.03 0.03 0.03 96 1006.0
20260506154125 62 196 0.0 0.0 0.03 0.03 0.03 96 1005.8
20260506153054 62 205 0.0 0.0 0.02 0.02 0.02 94 1005.8
20260506152555 62 205 0.0 0.0 0.02 0.02 0.02 93 1005.7
20260506152055 62 196 0.0 0.0 0.02 0.02 0.02 91 1005.7
20260506151556 62 188 0.0 0.0 0.01 0.01 0.01 89 1005.7
20260506151126 62 217 0.0 0.0 0.01 0.01 0.01 87 1006.0
20260506150557 63 219 0.0 0.0 0.00 0.00 0.00 84 1006.1
20260506145557 63 208 0.0 0.0 0.00 0.00 0.00 80 1006.1
20260506145058 63 203 0.0 0.0 0.00 0.00 0.00 79 1006.1
20260506144558 63 210 0.0 0.0 0.00 0.00 0.00 79 1006.1
20260506144058 63 181 0.0 0.0 0.00 0.00 0.00 79 1006.2
20260506143559 63 206 0.0 0.0 0.00 0.00 0.00 79 1006.2
20260506143129 63 178 0.0 0.0 0.00 0.00 0.00 80 1006.2
20260506142600 63 199 0.0 0.0 0.00 0.00 0.00 80 1006.1
20260506142130 63 200 0.0 0.0 0.00 0.00 0.00 80 1006.1
20260506141600 63 210 0.0 0.0 0.00 0.00 0.00 79 1006.1
20260506141131 63 240 0.0 0.0 0.00 0.00 0.00 79 1006.0
20260506140603 63 223 0.0 0.0 0.00 0.00 0.00 79 1006.0
20260506135603 63 202 0.0 0.0 0.00 0.00 0.00 80 1006.2
20260506135103 63 193 0.0 0.0 0.00 0.00 0.00 80 1006.2
20260506134603 63 186 0.0 0.0 0.00 0.00 0.00 80 1006.2
20260506133604 63 209 0.0 0.0 0.00 0.00 0.00 80 1006.3
20260506132605 63 200 0.0 0.0 0.00 0.00 0.00 80 1006.4
20260506132105 63 219 0.0 0.0 0.00 0.00 0.00 80 1006.4
20260506131605 63 191 0.0 0.0 0.00 0.00 0.00 80 1006.4
20260506131136 63 185 0.0 0.0 0.00 0.00 0.00 81 1006.4
20260506130606 63 175 0.0 0.0 0.00 0.00 0.00 81 1006.4
20260506125607 63 186 0.0 0.0 0.00 0.00 0.00 81 1006.2
20260506125138 62 193 0.0 0.0 0.00 0.00 0.00 82 1006.2
20260506124609 63 205 0.0 0.0 0.00 0.00 0.00 82 1006.2
20260506124139 62 160 0.0 0.0 0.00 0.00 0.00 82 1006.0
20260506123609 62 202 0.0 0.0 0.00 0.00 0.00 82 1006.0
20260506123109 62 215 0.0 0.0 0.00 0.00 0.00 83 1006.0
20260506122610 62 216 0.0 0.0 0.00 0.00 0.00 84 1006.2
20260506122110 62 217 0.0 0.0 0.00 0.00 0.00 83 1006.2
20260506121610 62 213 0.0 0.0 0.00 0.00 0.00 83 1006.2
20260506121110 62 244 0.0 0.0 0.00 0.00 0.00 84 1006.3
20260506120611 62 216 0.0 0.0 0.00 0.00 0.00 84 1006.3
20260506115614 62 195 0.0 0.0 0.00 0.00 0.00 84 1006.4
20260506115113 62 213 0.0 0.0 0.00 0.00 0.00 84 1006.4
20260506114613 62 202 0.0 0.0 0.00 0.00 0.00 84 1006.4
20260506114114 62 209 0.0 0.0 0.00 0.00 0.00 84 1006.4
20260506112115 62 198 0.0 0.0 0.00 0.00 0.00 84 1006.3
20260506111616 62 184 0.0 0.0 0.00 0.00 0.00 84 1006.3
20260506111116 62 216 0.0 0.0 0.00 0.00 0.00 85 1006.3
20260506105618 61 186 0.0 0.0 0.00 0.00 0.00 86 1006.3
20260506105118 61 191 0.0 0.0 0.00 0.00 0.00 86 1006.3
20260506104618 61 203 0.0 0.0 0.00 0.00 0.00 86 1006.3
20260506104119 61 176 0.0 0.0 0.00 0.00 0.00 86 1006.2
20260506103619 61 199 0.0 0.0 0.00 0.00 0.00 87 1006.2
20260506103121 61 193 0.0 0.0 0.00 0.01 0.00 87 1006.2
20260506102619 61 184 0.0 0.0 0.00 0.01 0.00 87 1006.3
20260506102120 61 217 0.0 0.0 0.00 0.01 0.00 87 1006.3
20260506101620 61 212 0.0 0.0 0.00 0.01 0.00 87 1006.3
20260506101121 61 234 0.0 0.0 0.00 0.01 0.00 87 1006.2
20260506100621 61 174 0.0 0.0 0.00 0.01 0.00 87 1006.2
20260506094623 61 217 0.0 0.0 0.00 0.01 0.00 87 1006.0
20260506094123 61 210 0.0 0.0 0.00 0.01 0.00 87 1006.0
20260506093625 61 200 0.0 0.0 0.00 0.01 0.00 87 1006.0
20260506093054 61 215 0.0 0.0 0.00 0.01 0.00 87 1006.0
20260506092555 61 233 0.0 0.0 0.00 0.01 0.00 87 1006.3
20260506092125 61 203 0.0 0.0 0.00 0.01 0.00 86 1006.3
20260506091056 61 192 0.0 0.0 0.00 0.01 0.00 87 1006.3
20260506090559 61 182 0.0 0.0 0.00 0.01 0.00 87 1006.3
20260506085557 61 198 0.0 0.0 0.00 0.01 0.00 87 1006.4
20260506085128 60 168 0.0 0.0 0.00 0.01 0.00 87 1006.4
20260506084558 60 224 0.0 0.0 0.00 0.01 0.00 86 1006.4
20260506084128 60 193 0.0 0.0 0.00 0.01 0.00 86 1006.4
20260506083558 61 223 0.0 0.0 0.00 0.01 0.00 85 1006.4
20260506083059 61 179 0.0 0.0 0.00 0.01 0.00 85 1006.4
20260506082600 61 206 0.0 0.0 0.00 0.01 0.00 84 1006.4
20260506082100 61 220 0.0 0.0 0.00 0.01 0.00 84 1006.4
20260506081601 61 200 0.0 0.0 0.00 0.01 0.00 83 1006.4
20260506081101 61 191 0.0 0.0 0.00 0.01 0.00 82 1006.5
20260506080601 61 186 0.0 0.0 0.00 0.01 0.00 82 1006.5
20260506080132 61 206 0.0 0.0 0.00 0.01 0.00 81 1006.5
20260506073104 62 213 0.0 0.0 0.00 0.01 0.00 77 1006.6
20260506072605 62 236 0.0 0.0 0.00 0.01 0.00 76 1006.6
20260506072105 62 215 0.0 0.0 0.00 0.01 0.00 76 1006.6
20260506071607 62 215 0.0 0.0 0.00 0.01 0.00 75 1006.6
20260506071106 62 213 0.0 0.0 0.00 0.01 0.00 75 1006.7
20260506062122 63 205 0.0 0.0 0.00 0.01 0.00 70 1006.9
20260506061552 63 222 0.0 0.0 0.00 0.01 0.00 70 1006.9
20260506061053 63 205 0.0 0.0 0.00 0.01 0.00 69 1006.9
20260506060553 63 172 0.0 0.0 0.00 0.01 0.00 69 1006.9
20260506051057 64 203 0.0 0.0 0.00 0.01 0.00 66 1007.5
20260506050557 64 186 0.0 0.0 0.00 0.01 0.00 66 1007.5
20260506045058 64 205 0.0 0.0 0.00 0.01 0.00 65 1007.4
20260506044600 65 200 0.0 0.0 0.00 0.01 0.00 64 1007.4
20260506043559 65 215 0.0 0.0 0.00 0.01 0.00 64 1007.4
20260506043102 65 174 0.0 0.0 0.00 0.01 0.00 63 1007.4
20260506042600 65 219 0.0 0.0 0.00 0.01 0.00 63 1007.4
20260506042101 65 219 0.0 0.0 0.00 0.01 0.00 63 1007.4
20260506041101 65 199 0.0 0.0 0.00 0.01 0.00 63 1007.4
20260506035604 66 169 0.0 0.0 0.00 0.01 0.01 62 1007.3
20260506034603 66 215 0.0 0.0 0.00 0.01 0.01 62 1007.3
20260506034122 66 223 0.0 0.0 0.00 0.01 0.01 62 1007.4
20260506033604 66 217 0.0 0.0 0.00 0.01 0.01 61 1007.4
20260506033105 66 213 0.0 0.0 0.00 0.01 0.01 61 1007.4
20260506032605 66 196 0.0 0.0 0.00 0.01 0.01 60 1007.3
20260506032105 66 175 0.0 0.0 0.00 0.01 0.01 60 1007.3
20260506031106 67 208 0.0 0.0 0.00 0.01 0.01 59 1007.4
20260506025607 67 215 0.0 0.0 0.00 0.01 0.01 57 1007.2
20260506025109 68 210 0.0 0.0 0.00 0.01 0.01 56 1007.2
20260506024608 68 220 0.0 0.0 0.00 0.01 0.01 55 1007.2
20260506023110 68 138 0.0 0.0 0.00 0.01 0.01 52 1007.2
20260506022611 69 169 0.0 0.0 0.00 0.01 0.01 51 1007.2
20260506022110 69 215 0.0 0.0 0.00 0.01 0.01 50 1007.2
20260506021112 69 200 0.0 0.0 0.00 0.01 0.01 47 1006.9
20260506020612 70 219 0.0 0.0 0.00 0.01 0.01 46 1006.9
20260506015613 70 199 0.0 0.0 0.00 0.01 0.01 45 1006.9
20260506015113 70 212 0.0 0.0 0.00 0.01 0.01 45 1006.9
20260506014613 70 226 0.0 0.0 0.00 0.01 0.01 45 1006.9
20260506014113 70 206 0.0 0.0 0.00 0.01 0.01 45 1006.8
20260506013614 70 200 0.0 0.0 0.00 0.01 0.01 44 1006.8
20260506013114 70 192 0.0 0.0 0.00 0.01 0.01 45 1006.8
20260506012615 71 210 0.0 0.0 0.00 0.01 0.01 45 1006.7
20260506012115 71 208 0.0 0.0 0.00 0.01 0.01 44 1006.7
20260506011617 71 202 0.0 0.0 0.00 0.01 0.01 45 1006.7
20260506011116 71 202 0.0 0.0 0.00 0.01 0.01 45 1006.4
20260506010616 71 212 0.0 0.0 0.00 0.01 0.01 44 1006.4
20260506005617 72 213 0.0 0.0 0.00 0.01 0.01 43 1006.3
20260506005117 72 200 0.0 0.0 0.00 0.01 0.01 43 1006.3
20260506004617 72 209 0.0 0.0 0.00 0.01 0.01 42 1006.3
20260506004118 72 213 0.0 0.0 0.00 0.01 0.01 41 1006.1
20260506003619 73 202 0.0 0.0 0.00 0.01 0.01 41 1006.1
20260506003119 73 222 0.0 0.0 0.00 0.01 0.01 40 1006.1
20260506002619 73 203 0.0 0.0 0.00 0.01 0.01 40 1006.0
20260506002121 73 216 0.0 0.0 0.00 0.01 0.01 39 1006.0
20260506001619 73 172 0.0 0.0 0.00 0.01 0.01 39 1006.0
20260506000620 73 229 0.0 0.0 0.00 0.01 0.01 38 1005.8
20260505235551 74 229 0.0 0.0 0.00 0.01 0.01 37 1005.6
20260505235122 74 208 0.0 0.0 0.00 0.01 0.01 37 1005.6
20260505234622 74 206 0.0 0.0 0.00 0.01 0.01 36 1005.6
20260505234123 74 223 0.0 0.0 0.00 0.01 0.01 36 1005.6
20260505233553 74 206 0.0 0.0 0.00 0.01 0.01 36 1005.6
20260505233054 75 208 0.0 0.0 0.00 0.01 0.01 36 1005.7
20260505232554 75 216 0.0 0.0 0.00 0.01 0.01 36 1005.5
20260505232054 75 213 0.0 0.0 0.00 0.01 0.01 36 1005.5
20260505231126 75 200 0.0 0.0 0.00 0.01 0.01 35 1005.4
20260505230556 75 168 0.0 0.0 0.00 0.01 0.01 35 1005.4
20260505225556 75 219 0.0 0.0 0.00 0.01 0.01 34 1005.0
20260505225057 76 206 0.0 0.0 0.00 0.01 0.01 34 1005.0
20260505224557 76 220 0.0 0.0 0.00 0.01 0.01 34 1005.0
20260505224057 76 210 0.0 0.0 0.00 0.01 0.01 33 1004.9
20260505222101 77 210 0.0 0.0 0.00 0.01 0.01 32 1005.0
20260505220600 78 246 0.0 0.0 0.00 0.01 0.01 31 1005.0
20260505215601 78 200 0.0 0.0 0.00 0.01 0.01 32 1004.8
20260505215102 78 196 0.0 0.0 0.00 0.01 0.01 33 1004.8
20260505214102 77 237 0.0 0.0 0.00 0.01 0.01 32 1004.8
20260505212604 77 206 0.0 0.0 0.00 0.01 0.01 32 1004.6
20260505211604 78 193 0.0 0.0 0.00 0.01 0.01 31 1004.6
20260505211105 78 219 0.0 0.0 0.00 0.01 0.01 31 1004.4
20260505210605 78 181 0.0 0.0 0.00 0.01 0.01 31 1004.4
20260505205606 78 162 0.0 0.0 0.00 0.01 0.01 32 1004.3
20260505205106 79 237 0.0 0.0 0.00 0.01 0.01 31 1004.3
20260505204607 79 192 0.0 0.0 0.00 0.01 0.01 31 1004.3
20260505203608 79 233 0.0 0.0 0.00 0.01 0.01 31 1004.4
20260505202610 79 230 0.0 0.0 0.00 0.01 0.01 31 1004.5
20260505201609 79 212 0.0 0.0 0.00 0.01 0.01 31 1004.5
20260505201110 79 215 0.0 0.0 0.00 0.01 0.01 31 1004.6
20260505200610 80 164 0.0 0.0 0.00 0.01 0.01 32 1004.6
20260505195611 79 200 0.0 0.0 0.00 0.01 0.01 32 1004.6
20260505195111 79 230 0.0 0.0 0.00 0.01 0.01 32 1004.6
20260505194611 79 200 0.0 0.0 0.00 0.01 0.01 33 1004.6
20260505194111 79 200 0.0 0.0 0.00 0.01 0.01 33 1004.7
20260505193612 79 198 0.0 0.0 0.00 0.01 0.01 34 1004.7
20260505193113 79 200 0.0 0.0 0.00 0.01 0.01 33 1004.7
20260505192613 79 186 0.0 0.0 0.00 0.01 0.01 32 1004.9
20260505192114 79 188 0.0 0.0 0.00 0.01 0.01 30 1004.9
20260505191614 79 243 0.0 0.0 0.00 0.01 0.01 33 1004.9
20260505190215 78 151 0.0 0.0 0.00 0.01 0.01 36 1005.1
20260505185616 79 161 0.0 0.0 0.00 0.01 0.01 36 1005.2
20260505184617 79 176 0.0 0.0 0.00 0.01 0.01 34 1005.2
20260505183617 79 208 0.0 0.0 0.00 0.01 0.01 32 1005.5
20260505183118 79 147 0.0 0.0 0.00 0.01 0.01 32 1005.5